This is the latest recevied weather packets stored in our database for station/object WAYLND-WX. If no packets are shown the sender has not sent any weather packets the latest 10 day(s).
| Time | Temp. | Humidity | Pressure | Rain* | Wind** | Luminosity | Snow |
|---|---|---|---|---|---|---|---|
| 1777482941 | 10.56° C | 80% | 984.7 hPa | 0.25 mm | - | - | - |
| 1777482066 | 11.11° C | 80% | 984.7 hPa | 0.25 mm | - | - | - |
| 1777481141 | 11.11° C | 79% | 985 hPa | 0 mm | - | - | - |
| 1777480260 | 10° C | 83% | 985 hPa | 0.51 mm | - | - | - |
| 1777479341 | 10° C | 83% | 985 hPa | 0.51 mm | - | - | - |
| 1777478470 | 10° C | 83% | 985 hPa | 0.51 mm | - | - | - |
| 1777477541 | 10° C | 79% | 985.6 hPa | 0 mm | - | - | - |
| 1777476656 | 10° C | 82% | 986.2 hPa | 0 mm | - | - | - |
| 1777475741 | 10.56° C | 82% | 986.2 hPa | 0 mm | - | - | - |
| 1777474869 | 10.56° C | 82% | 986.2 hPa | 0 mm | - | - | - |
| 1777473940 | 10.56° C | 81% | 985.8 hPa | 0 mm | - | - | - |
| 1777473057 | 10.56° C | 80% | 985.6 hPa | 0 mm | - | - | - |
| 1777472142 | 10.56° C | 80% | 985.6 hPa | 0 mm | - | - | - |
| 1777471277 | 10.56° C | 80% | 985.6 hPa | 0 mm | - | - | - |
| 1777470341 | 10.56° C | 85% | 986.4 hPa | 0 mm | - | - | - |
| 1777469460 | 10.56° C | 85% | 986.4 hPa | 0 mm | - | - | - |
| 1777468541 | 10° C | 85% | 986.3 hPa | 0 mm | - | - | - |
| 1777467669 | 10° C | 85% | 986.3 hPa | 0 mm | - | - | - |
| 1777466740 | 9.44° C | 89% | 986.3 hPa | 0 mm | - | - | - |
| 1777465860 | 9.44° C | 85% | 986.3 hPa | 0 mm | - | - | - |
| 1777464940 | 9.44° C | 85% | 986.2 hPa | 0 mm | - | - | - |
| 1777464072 | 8.89° C | 85% | 986.2 hPa | 0 mm | - | - | - |
| 1777463141 | 8.89° C | 88% | 985.4 hPa | 0 mm | - | - | - |
| 1777462258 | 8.89° C | 90% | 985.6 hPa | 0 mm | - | - | - |
| 1777461341 | 8.89° C | 90% | 985.6 hPa | 0 mm | - | - | - |
* Rain latest hour (hover to see other rain measurements)
** Current wind speed in m/s (hover to see current wind gust speed)